Time,TemperatureF,DewpointF,PressureIn,WindDirection,WindDirectionDegrees,WindSpeedMPH,WindSpeedGustMPH,Humidity,HourlyPrecipIn,Conditions,Clouds,dailyrainin,SoftwareType,DateUTC
2013-08-24 00:00:00,82.0,69.0,-100.00,East,92,5.0,-999.0,64,0.00,,,0.00,,2013-08-24 05:00:00,
2013-08-24 00:43:00,82.0,69.0,-100.00,East,92,5.0,-999.0,64,0.00,,,0.00,,2013-08-24 05:43:00,
2013-08-24 00:53:00,82.0,69.0,-100.00,East,92,5.0,-999.0,64,0.00,,,0.00,,2013-08-24 05:53:00,
2013-08-24 01:00:00,79.0,69.0,-100.00,SE,130,3.0,-999.0,72,0.00,,,0.00,,2013-08-24 06:00:00,
2013-08-24 01:42:00,79.0,69.0,-100.00,SE,130,3.0,-999.0,72,0.00,,,0.00,,2013-08-24 06:42:00,
2013-08-24 01:52:00,79.0,69.0,-100.00,SE,130,3.0,-999.0,72,0.00,,,0.00,,2013-08-24 06:52:00,
2013-08-24 02:00:00,77.0,69.0,-100.00,SSE,166,3.0,-999.0,76,0.00,,,0.00,,2013-08-24 07:00:00,
2013-08-24 02:43:00,77.0,69.0,-100.00,SSE,166,3.0,-999.0,76,0.00,,,0.00,,2013-08-24 07:43:00,
2013-08-24 02:53:00,77.0,69.0,-100.00,SSE,166,3.0,-999.0,76,0.00,,,0.00,,2013-08-24 07:53:00,
2013-08-24 03:00:00,77.0,70.0,-100.00,SE,128,3.0,-999.0,78,0.00,,,0.00,,2013-08-24 08:00:00,
2013-08-24 03:42:00,77.0,70.0,-100.00,SE,128,3.0,-999.0,78,0.00,,,0.00,,2013-08-24 08:42:00,
2013-08-24 03:52:00,77.0,70.0,-100.00,SE,128,3.0,-999.0,78,0.00,,,0.00,,2013-08-24 08:52:00,
2013-08-24 04:00:00,78.0,70.0,-100.00,East,99,3.0,-999.0,77,0.00,,,0.00,,2013-08-24 09:00:00,
2013-08-24 04:44:00,78.0,70.0,-100.00,East,99,3.0,-999.0,77,0.00,,,0.00,,2013-08-24 09:44:00,
2013-08-24 04:53:00,78.0,70.0,-100.00,East,99,3.0,-999.0,77,0.00,,,0.00,,2013-08-24 09:53:00,
2013-08-24 05:00:00,78.0,70.0,-100.00,ENE,66,3.0,-999.0,77,0.00,,,0.00,,2013-08-24 10:00:00,
2013-08-24 05:42:00,78.0,70.0,-100.00,ENE,66,3.0,-999.0,77,0.00,,,0.00,,2013-08-24 10:42:00,
2013-08-24 05:53:00,78.0,70.0,-100.00,ENE,66,3.0,-999.0,77,0.00,,,0.00,,2013-08-24 10:53:00,
2013-08-24 06:00:00,77.0,70.0,-100.00,NNE,15,1.0,-999.0,80,0.00,,,0.00,,2013-08-24 11:00:00,
2013-08-24 06:42:00,77.0,70.0,-100.00,NNE,15,1.0,-999.0,80,0.00,,,0.00,,2013-08-24 11:42:00,
2013-08-24 06:52:00,77.0,70.0,-100.00,NNE,15,1.0,-999.0,80,0.00,,,0.00,,2013-08-24 11:52:00,
2013-08-24 07:00:00,75.0,71.0,-100.00,NNE,14,4.0,-999.0,86,0.00,,,0.00,,2013-08-24 12:00:00,
2013-08-24 07:42:00,75.0,71.0,-100.00,NNE,14,4.0,-999.0,86,0.00,,,0.00,,2013-08-24 12:42:00,
2013-08-24 07:52:00,75.0,71.0,-100.00,NNE,14,4.0,-999.0,86,0.00,,,0.00,,2013-08-24 12:52:00,
2013-08-24 08:00:00,76.0,72.0,-100.00,NNE,21,2.0,-999.0,87,0.00,,,0.00,,2013-08-24 13:00:00,
2013-08-24 08:42:00,76.0,72.0,-100.00,NNE,21,2.0,-999.0,87,0.00,,,0.00,,2013-08-24 13:42:00,
2013-08-24 08:52:00,76.0,72.0,-100.00,NNE,21,2.0,-999.0,87,0.00,,,0.00,,2013-08-24 13:52:00,
2013-08-24 09:00:00,82.0,73.0,-100.00,ESE,112,5.0,-999.0,73,0.00,,,0.00,,2013-08-24 14:00:00,
2013-08-24 09:42:00,82.0,73.0,-100.00,ESE,112,5.0,-999.0,73,0.00,,,0.00,,2013-08-24 14:42:00,
2013-08-24 09:52:00,82.0,73.0,-100.00,ESE,112,5.0,-999.0,73,0.00,,,0.00,,2013-08-24 14:52:00,
2013-08-24 10:00:00,86.0,72.0,-100.00,ESE,121,6.0,-999.0,63,0.00,,,0.00,,2013-08-24 15:00:00,
2013-08-24 10:45:00,86.0,72.0,-100.00,ESE,121,6.0,-999.0,63,0.00,,,0.00,,2013-08-24 15:45:00,
2013-08-24 10:54:00,86.0,72.0,-100.00,ESE,121,6.0,-999.0,63,0.00,,,0.00,,2013-08-24 15:54:00,
2013-08-24 11:00:00,88.0,72.0,-100.00,ESE,112,7.0,-999.0,58,0.00,,,0.00,,2013-08-24 16:00:00,
2013-08-24 11:42:00,88.0,72.0,-100.00,ESE,112,7.0,-999.0,58,0.00,,,0.00,,2013-08-24 16:42:00,
2013-08-24 11:53:00,88.0,72.0,-100.00,ESE,112,7.0,-999.0,58,0.00,,,0.00,,2013-08-24 16:53:00,
2013-08-24 13:00:00,92.0,69.0,-100.00,SSE,151,7.0,-999.0,48,0.00,,,0.00,,2013-08-24 18:00:00,
2013-08-24 13:42:00,92.0,69.0,-100.00,SSE,151,7.0,-999.0,48,0.00,,,0.00,,2013-08-24 18:42:00,
2013-08-24 13:53:00,92.0,69.0,-100.00,SSE,151,7.0,-999.0,48,0.00,,,0.00,,2013-08-24 18:53:00,
2013-08-24 14:00:00,94.0,70.0,-100.00,SSE,156,10.0,-999.0,46,0.00,,,0.00,,2013-08-24 19:00:00,
2013-08-24 14:42:00,94.0,70.0,-100.00,SSE,156,10.0,-999.0,46,0.00,,,0.00,,2013-08-24 19:42:00,
2013-08-24 14:52:00,94.0,70.0,-100.00,SSE,156,10.0,-999.0,46,0.00,,,0.00,,2013-08-24 19:52:00,
2013-08-24 15:00:00,95.0,69.0,-100.00,SSE,165,9.0,-999.0,42,0.00,,,0.00,,2013-08-24 20:00:00,
2013-08-24 15:42:00,95.0,69.0,-100.00,SSE,165,9.0,-999.0,42,0.00,,,0.00,,2013-08-24 20:42:00,
2013-08-24 15:52:00,95.0,69.0,-100.00,SSE,165,9.0,-999.0,42,0.00,,,0.00,,2013-08-24 20:52:00,
2013-08-24 16:00:00,96.0,68.0,-100.00,SE,130,6.0,-999.0,41,0.00,,,0.00,,2013-08-24 21:00:00,
2013-08-24 16:43:00,96.0,68.0,-100.00,SE,130,6.0,-999.0,41,0.00,,,0.00,,2013-08-24 21:43:00,
2013-08-24 16:55:00,96.0,68.0,-100.00,SE,130,6.0,-999.0,41,0.00,,,0.00,,2013-08-24 21:55:00,
2013-08-24 17:00:00,95.0,68.0,-100.00,SE,140,7.0,-999.0,41,0.00,,,0.00,,2013-08-24 22:00:00,
2013-08-24 17:43:00,95.0,68.0,-100.00,SE,140,7.0,-999.0,41,0.00,,,0.00,,2013-08-24 22:43:00,
2013-08-24 17:53:00,95.0,68.0,-100.00,SE,140,7.0,-999.0,41,0.00,,,0.00,,2013-08-24 22:53:00,
2013-08-24 18:00:00,95.0,65.0,-100.00,SE,128,8.0,-999.0,38,0.00,,,0.00,,2013-08-24 23:00:00,
2013-08-24 18:43:00,95.0,65.0,-100.00,SE,128,8.0,-999.0,38,0.00,,,0.00,,2013-08-24 23:43:00,
2013-08-24 18:53:00,95.0,65.0,-100.00,SE,128,8.0,-999.0,38,0.00,,,0.00,,2013-08-24 23:53:00,
2013-08-24 19:00:00,92.0,68.0,-100.00,SSE,160,7.0,-999.0,45,0.00,,,0.00,,2013-08-25 00:00:00,
2013-08-24 19:42:00,92.0,68.0,-100.00,SSE,160,7.0,-999.0,45,0.00,,,0.00,,2013-08-25 00:42:00,
2013-08-24 19:52:00,92.0,68.0,-100.00,SSE,160,7.0,-999.0,45,0.00,,,0.00,,2013-08-25 00:52:00,
2013-08-24 20:00:00,89.0,68.0,-100.00,SE,128,3.0,-999.0,51,0.00,,,0.00,,2013-08-25 01:00:00,
2013-08-24 20:43:00,89.0,68.0,-100.00,SE,128,3.0,-999.0,51,0.00,,,0.00,,2013-08-25 01:43:00,
2013-08-24 20:52:00,89.0,68.0,-100.00,SE,128,3.0,-999.0,51,0.00,,,0.00,,2013-08-25 01:52:00,
2013-08-24 21:00:00,87.0,69.0,-100.00,East,100,5.0,-999.0,56,0.00,,,0.00,,2013-08-25 02:00:00,
2013-08-24 21:42:00,87.0,69.0,-100.00,East,100,5.0,-999.0,56,0.00,,,0.00,,2013-08-25 02:42:00,
2013-08-24 21:52:00,87.0,69.0,-100.00,East,100,5.0,-999.0,56,0.00,,,0.00,,2013-08-25 02:52:00,
2013-08-24 22:00:00,-999.0,-99.9,-100.00,ENE,72,5.0,-999.0,-999,-99.99,,,-99.99,,2013-08-25 03:00:00,
2013-08-24 22:44:00,86.0,68.0,-100.00,ENE,72,5.0,-999.0,56,0.00,,,0.00,,2013-08-25 03:44:00,
2013-08-24 22:54:00,86.0,68.0,-100.00,ENE,72,5.0,-999.0,56,0.00,,,0.00,,2013-08-25 03:54:00,
2013-08-24 23:00:00,83.0,68.0,-100.00,ESE,109,3.0,-999.0,60,0.00,,,0.00,,2013-08-25 04:00:00,
2013-08-24 23:44:00,83.0,68.0,-100.00,ESE,109,3.0,-999.0,60,0.00,,,0.00,,2013-08-25 04:44:00,
2013-08-24 23:54:00,83.0,68.0,-100.00,ESE,109,3.0,-999.0,60,0.00,,,0.00,,2013-08-25 04:54:00,